Weather History for KCVX - December, 2011

Change the Weather History Date:

Sunday, December 4, 2011

  Actual Average Record
Temperature  
Mean Temperature 41 °F -  
Max Temperature 46 °F 43 °F 58 °F (2012)
Min Temperature 36 °F 31 °F 19 °F (2003)
Degree Days  
Heating Degree Days 24    
Moisture  
Dew Point 39 °F    
Average Humidity 90    
Maximum Humidity 96    
Minimum Humidity 76    
Precipitation  
Precipitation 0.00 in - - ()
Sea Level Pressure  
Sea Level Pressure 29.89 in    
Wind  
Wind Speed 10 mph (WSW)    
Max Wind Speed 15 mph    
Max Gust Speed 23 mph    
Visibility 7 miles    
Events Rain    
Averages and records for this station are not official NWS values.
T = Trace of Precipitation, MM = Missing Value Source: NWS Daily Summary

Daily Weather History Graph

Daily Weather History Graph

Search for Another Location

Airport or City:

Trip Planner

Search our weather history database for the weather conditions in past years. The results will help you decide how hot, cold, wet, or windy it might be!

Date:

Astronomy

Dec. 04, 2011 Rise Set
Actual Time 8:03 AM EST 4:59 PM EST
Civil Twilight 7:29 AM EST 5:32 PM EST
Nautical Twilight 6:52 AM EST 6:09 PM EST
Astronomical Twilight 6:17 AM EST 6:45 PM EST
Moon 1:40 PM EST (12/4) 2:15 AM EST (12/4)
Length of Visible Light 10h 02m
Length of Day
8h 55m
Waxing Gibbous, 71% of the Moon is Illuminated
Dec 4
Waxing Gibbous
Dec 10
Full
Dec 17
Last Quarter
Dec 24
New
Jan 1
First Quarter

Hourly Weather History & Observations

Time (EST) Temp. Windchill Dew Point Humidity Pressure Visibility Wind Dir Wind Speed Gust Speed Precip Events Conditions
12:15 AM 43.3 °F 38.1 °F 37.0 °F 78% 29.93 in 10.0 mi SSE 9.2 mph - N/A   Overcast
12:34 AM 43.5 °F 38.9 °F 36.3 °F 76% 29.92 in 10.0 mi SSE 8.1 mph - N/A   Overcast
12:54 AM 43.3 °F 38.6 °F 36.5 °F 77% 29.90 in 7.0 mi SSW 8.1 mph - N/A Rain Light Rain
1:15 AM 42.8 °F 38.0 °F 37.8 °F 82% 29.90 in 7.0 mi South 8.1 mph - N/A Rain Light Rain
1:34 AM 41.9 °F 38.2 °F 38.3 °F 87% 29.88 in 5.0 mi SSE 5.8 mph - N/A Rain Light Rain
1:54 AM 41.4 °F 38.4 °F 38.5 °F 89% 29.87 in 10.0 mi SE 4.6 mph - N/A Rain Light Rain
2:15 AM 41.0 °F 37.1 °F 38.7 °F 91% 29.87 in 7.0 mi SSE 5.8 mph - N/A Rain Rain
2:34 AM 41.0 °F 36.4 °F 38.8 °F 92% 29.86 in 7.0 mi SE 6.9 mph - N/A Rain Rain
2:54 AM 41.0 °F 36.4 °F 39.2 °F 93% 29.84 in 5.0 mi SSE 6.9 mph - N/A Rain Light Rain
3:34 AM 41.9 °F 38.2 °F 40.1 °F 93% 29.82 in 7.0 mi SSE 5.8 mph - N/A Rain Light Rain
3:54 AM 42.8 °F 37.5 °F 40.8 °F 93% 29.82 in 10.0 mi South 9.2 mph - N/A   Drizzle
4:15 AM 43.3 °F 37.7 °F 41.4 °F 93% 29.81 in 7.0 mi South 10.4 mph 21.9 mph N/A Rain Light Rain
4:34 AM 43.7 °F 36.9 °F 41.9 °F 93% 29.80 in 10.0 mi South 13.8 mph 17.3 mph N/A Rain Light Rain
4:55 AM 43.9 °F 37.2 °F 41.9 °F 93% 29.79 in 7.0 mi South 13.8 mph 20.7 mph N/A Rain Rain
5:14 AM 44.1 °F 38.1 °F 42.3 °F 93% 29.79 in 7.0 mi South 11.5 mph 18.4 mph N/A Rain Light Rain
5:34 AM 44.2 °F 38.0 °F 42.6 °F 94% 29.79 in 7.0 mi South 12.7 mph 18.4 mph N/A Rain Light Rain
5:55 AM 44.6 °F 38.4 °F 42.8 °F 93% 29.79 in 7.0 mi South 12.7 mph 21.9 mph N/A Rain Rain
6:14 AM 44.8 °F 38.7 °F 43.0 °F 93% 29.79 in 10.0 mi South 12.7 mph 19.6 mph N/A Rain Light Rain
6:34 AM 45.1 °F 39.5 °F 43.3 °F 93% 29.78 in 10.0 mi South 11.5 mph 19.6 mph N/A   Overcast
6:55 AM 45.1 °F 39.5 °F 43.7 °F 95% 29.78 in 10.0 mi South 11.5 mph 21.9 mph N/A Rain Light Rain
7:14 AM 45.5 °F 39.9 °F 43.7 °F 93% 29.78 in 10.0 mi South 11.5 mph 16.1 mph N/A   Overcast
7:34 AM 45.5 °F 39.9 °F 44.1 °F 95% 29.78 in 7.0 mi South 11.5 mph 17.3 mph N/A   Overcast
7:55 AM 45.7 °F 41.0 °F 44.6 °F 96% 29.79 in 3.0 mi SSW 9.2 mph - N/A Rain Light Rain
8:14 AM 45.7 °F 41.0 °F 44.6 °F 96% 29.79 in 3.0 mi South 9.2 mph 19.6 mph N/A Rain Rain
8:34 AM 46.0 °F 40.6 °F 44.8 °F 95% 29.79 in 4.0 mi SSW 11.5 mph 17.3 mph N/A Rain Rain
8:55 AM 46.4 °F 41.9 °F 44.8 °F 94% 29.79 in 3.0 mi SSW 9.2 mph 16.1 mph N/A   Drizzle
9:14 AM 46.4 °F 42.4 °F 45.1 °F 95% 29.79 in 2.5 mi SSW 8.1 mph 17.3 mph N/A Rain Rain
9:34 AM 46.4 °F 41.9 °F 45.1 °F 95% 29.80 in 5.0 mi SSW 9.2 mph - N/A Rain Light Rain
9:54 AM 46.6 °F - 45.5 °F 96% 29.82 in 2.5 mi West 13.8 mph 20.7 mph N/A Rain Rain
10:14 AM 41.9 °F 35.9 °F 40.5 °F 95% 29.83 in 4.0 mi WNW 10.4 mph - N/A   Drizzle
10:35 AM 41.7 °F 35.6 °F 40.5 °F 95% 29.84 in 4.0 mi NW 10.4 mph - N/A   Overcast
10:55 AM 40.8 °F 35.0 °F 39.7 °F 96% 29.85 in 3.0 mi NW 9.2 mph - N/A Rain Light Rain
11:14 AM 40.3 °F 34.9 °F 39.2 °F 96% 29.86 in 4.0 mi NW 8.1 mph - N/A   Overcast
11:35 AM 39.7 °F 33.7 °F 38.7 °F 96% 29.87 in 2.5 mi NW 9.2 mph - N/A Rain Light Rain
11:54 AM 39.6 °F 32.5 °F 38.3 °F 95% 29.89 in 2.5 mi NW 11.5 mph 16.1 mph N/A   Overcast
12:14 PM 38.8 °F 32.6 °F 37.4 °F 95% 29.89 in 3.0 mi NW 9.2 mph - N/A   Overcast
12:35 PM 38.7 °F 32.4 °F 36.9 °F 93% 29.89 in 5.0 mi NW 9.2 mph 17.3 mph N/A   Light Drizzle
12:54 PM 38.5 °F 31.1 °F 36.7 °F 93% 29.90 in 5.0 mi NNW 11.5 mph - N/A   Overcast
1:14 PM 38.7 °F 31.8 °F 36.3 °F 91% 29.90 in 10.0 mi NW 10.4 mph - N/A   Overcast
1:35 PM 38.8 °F 31.2 °F 36.5 °F 91% 29.92 in 10.0 mi NW 12.7 mph 17.3 mph N/A   Overcast
1:54 PM 38.8 °F 32.1 °F 36.1 °F 90% 29.93 in 10.0 mi NW 10.4 mph - N/A   Overcast
2:14 PM 38.8 °F 32.1 °F 35.6 °F 88% 29.94 in 10.0 mi NW 10.4 mph 16.1 mph N/A   Overcast
2:35 PM 38.8 °F 32.6 °F 35.8 °F 89% 29.94 in 5.0 mi NW 9.2 mph - N/A   Overcast
2:54 PM 38.7 °F 31.4 °F 35.6 °F 89% 29.96 in 5.0 mi NW 11.5 mph 17.3 mph N/A   Overcast
3:15 PM 38.7 °F 31.8 °F 35.6 °F 89% 29.96 in 10.0 mi NNW 10.4 mph 17.3 mph N/A   Light Drizzle
3:34 PM 38.7 °F 31.8 °F 34.9 °F 86% 29.97 in 10.0 mi NW 10.4 mph 18.4 mph N/A   Overcast
3:54 PM 38.7 °F 31.8 °F 34.7 °F 86% 29.99 in 10.0 mi NW 10.4 mph 17.3 mph N/A   Overcast
4:15 PM 38.7 °F 30.9 °F 34.7 °F 86% 30.00 in 10.0 mi NW 12.7 mph 18.4 mph N/A   Overcast
4:34 PM 38.7 °F 31.4 °F 34.3 °F 84% 30.01 in 10.0 mi NW 11.5 mph 18.4 mph N/A   Overcast
4:54 PM 38.7 °F 31.4 °F 34.3 °F 84% 30.02 in 10.0 mi NW 11.5 mph - N/A   Overcast
5:15 PM 38.5 °F 30.7 °F 33.8 °F 83% 30.05 in 10.0 mi NW 12.7 mph 17.3 mph N/A   Overcast
5:34 PM 38.3 °F 30.5 °F 32.5 °F 80% 30.05 in 10.0 mi NNW 12.7 mph 20.7 mph N/A   Overcast
5:54 PM 37.9 °F 29.2 °F 34.0 °F 86% 30.06 in 10.0 mi NW 15.0 mph 18.4 mph N/A   Overcast
6:34 PM 36.9 °F 27.8 °F 33.4 °F 87% 30.09 in 7.0 mi NW 15.0 mph 23.0 mph N/A Rain Rain
6:54 PM 36.1 °F 28.7 °F 32.9 °F 88% 30.10 in 10.0 mi NNW 10.4 mph 19.6 mph N/A Rain Light Rain
7:14 PM 36.0 °F 27.1 °F 32.5 °F 87% 30.12 in 10.0 mi NW 13.8 mph 21.9 mph N/A   Overcast
7:34 PM 35.8 °F 27.3 °F 32.2 °F 87% 30.14 in 10.0 mi NW 12.7 mph 19.6 mph N/A Rain Light Rain
7:55 PM 35.8 °F 27.3 °F 31.1 °F 83% 30.15 in 10.0 mi NW 12.7 mph 20.7 mph N/A   Overcast
8:14 PM 35.6 °F 27.5 °F 30.9 °F 83% 30.16 in 10.0 mi NW 11.5 mph 17.3 mph N/A   Overcast
8:34 PM 35.4 °F 26.8 °F 30.4 °F 82% 30.17 in 10.0 mi NW 12.7 mph - N/A   Overcast
8:55 PM 35.1 °F 28.6 °F 31.1 °F 85% 30.18 in 10.0 mi NW 8.1 mph 18.4 mph N/A   Overcast
9:14 PM 34.7 °F 26.9 °F 31.1 °F 87% 30.19 in 7.0 mi NNW 10.4 mph 18.4 mph N/A   Overcast
9:34 PM 34.7 °F 27.5 °F 30.6 °F 85% 30.19 in 10.0 mi NNW 9.2 mph 17.3 mph N/A   Overcast
9:55 PM 35.1 °F 26.9 °F 30.9 °F 85% 30.19 in 10.0 mi NW 11.5 mph - N/A   Overcast
10:14 PM 35.2 °F 26.6 °F 30.2 °F 82% 30.20 in 10.0 mi NNW 12.7 mph 19.6 mph N/A   Overcast
10:34 PM 33.8 °F 25.3 °F 32.0 °F 93% 30.20 in 10.0 mi North 11.5 mph - N/A Rain Light Rain
10:55 PM 33.6 °F 26.2 °F 32.2 °F 94% 30.21 in 7.0 mi North 9.2 mph 16.1 mph N/A Rain Light Rain
11:14 PM 33.3 °F 24.6 °F 31.8 °F 94% 30.21 in 7.0 mi NNW 11.5 mph - N/A Rain Light Rain
11:34 PM 33.4 °F 25.4 °F 31.6 °F 93% 30.22 in 7.0 mi NNW 10.4 mph - N/A   Overcast
11:55 PM 33.1 °F 24.9 °F 31.1 °F 92% 30.23 in 4.0 mi NNW 10.4 mph 17.3 mph N/A   Overcast